This demonstration page uses our WeatherBlox Daily Observations layout. Learn more.

Left ArrowRight Arrow

Hourly Observations for May 4, 2020

Temp ( °F °C ) Dew Point ( °F °C ) Humidity (%) Winds ( mph kmh ) Pressure ( in mb ) Visibility ( mi km ) Precip ( " mm )
12:52 am 00:52 Mostly Cloudy 58 14.4 41 5 53 53 Calm 29.97 1015 10 16 0.00 0.00
1:52 am 01:52 Cloudy 60 15.6 43 6.1 53 53 SE 5 7 29.96 1015 10 16 0.00 0.00
2:52 am 02:52 Cloudy 56 13.3 43 6.1 62 62 N 8 13 29.95 1014 10 16 0.00 0.00
3:52 am 03:52 Cloudy 60 15.6 42 5.6 52 52 E 5 7 29.97 1015 10 16 0.00 0.00
4:52 am 04:52 Cloudy 61 16.1 41 5 48 48 E 8 13 29.94 1014 10 16 0.00 0.00
5:52 am 05:52 Cloudy 61 16.1 41 5 48 48 E 9 15 29.93 1013 10 16 0.00 0.00
6:52 am 06:52 Cloudy 60 15.6 41 5 50 50 E 7 11 29.96 1014 10 16 0.00 0.00
7:52 am 07:52 Cloudy with Light Rain 58 14.4 42 5.6 56 56 Calm 29.98 1015 9 14 0.00 0.00
8:52 am 08:52 Cloudy with Light Rain 56 13.3 47 8.3 72 72 NNE 9 15 29.96 1014 10 16 0.01 0.25
9:52 am 09:52 Cloudy with Light Rain 55 12.8 46 7.8 72 72 Calm 29.98 1015 10 16 0.01 0.25
10:52 am 10:52 Cloudy with Light Rain 53 11.7 49 9.4 86 86 E 9 15 29.92 1013 6 10 0.07 1.78
11:52 am 11:52 Cloudy 54 12.2 49 9.4 83 83 ENE 10 17 29.93 1013 10 16 0.03 0.76
12:52 pm 12:52 Cloudy 55 12.8 48 8.9 77 77 VRB 5 7 29.93 1014 10 16 0.00 0.00
1:52 pm 13:52 Cloudy 55 12.8 48 8.9 77 77 E 10 17 29.92 1013 10 16 0.00 0.00
2:52 pm 14:52 Cloudy 56 13.3 48 8.9 75 75 E 7 11 29.93 1014 10 16 0.00 0.00
3:52 pm 15:52 Cloudy with Light Rain 57 13.9 49 9.4 74 74 ENE 7 11 29.93 1013 10 16 0.00 0.00
4:52 pm 16:52 Cloudy 56 13.3 49 9.4 77 77 NNE 8 13 29.93 1014 10 16 0.00 0.00
5:52 pm 17:52 Cloudy with Light Rain 55 12.8 49 9.4 80 80 N 12 19 29.94 1014 7 11 0.00 0.00
6:52 pm 18:52 Cloudy with Light Rain 53 11.7 49 9.4 86 86 ENE 14 22 29.94 1014 7 11 0.01 0.25
7:52 pm 19:52 Mostly Cloudy with Light Rain 52 11.1 48 8.9 86 86 ENE 12 19 29.96 1014 7 11 0.00 0.00
8:52 pm 20:52 Mostly Cloudy 51 10.6 48 8.9 89 89 Calm 29.97 1015 10 16 0.00 0.00
9:52 pm 21:52 Cloudy 51 10.6 46 7.8 83 83 NE 3 6 30.01 1016 10 16 0.00 0.00
10:52 pm 22:52 Cloudy 51 10.6 46 7.8 83 83 E 3 6 30.00 1016 10 16 0.00 0.00
11:52 pm 23:52 Cloudy with Light Rain 50 10 46 7.8 86 86 SE 5 7 29.99 1016 10 16 0.00 0.00

Powered by AerisWeather